Location: Milton
(43.5183°N, 79.8775°W)
Time: 05:39:46
(UTC+00:00)

AO-7 - Visible Passes

Search period start: 21 March 2023 00:00
Search period end: 31 March 2023 00:00
Orbit: 1440 x 1458 km, 101.9° (Epoch: 20 March)

Date Brightness Start Highest point End Pass type
(mag) Time Alt. Az. Time Alt. Az. Time Alt. Az.
21 Mar ? 08:12:53 10° ENE 08:15:34 12° E 08:18:14 10° ESE visible
21 Mar ? 10:01:30 10° NNE 10:09:51 65° ESE 10:18:05 10° S visible
22 Mar ? 09:02:25 10° NE 09:09:25 29° E 09:16:19 10° SSE visible
23 Mar ? 09:54:30 10° NNE 10:02:45 60° ESE 10:10:55 10° S visible
24 Mar ? 08:55:34 10° NE 09:02:15 26° E 09:08:51 10° SSE visible
24 Mar ? 10:47:19 10° NNE 10:55:39 73° WNW 11:03:54 10° SSW visible
25 Mar ? 09:47:29 10° NNE 09:55:39 54° ESE 10:03:43 10° S visible
26 Mar ? 08:48:46 10° NE 08:55:04 23° E 09:01:19 10° SE visible
26 Mar ? 10:40:14 10° NNE 10:48:37 80° WNW 10:56:54 10° SSW visible
27 Mar ? 09:40:30 10° NNE 09:48:33 49° ESE 09:56:30 10° S visible
28 Mar ? 08:42:00 10° NE 08:47:54 21° E 08:53:43 10° SE visible
28 Mar ? 10:33:10 10° NNE 10:41:34 86° WNW 10:49:53 10° SSW visible
29 Mar ? 09:33:32 10° NNE 09:41:26 44° E 09:49:14 10° S visible
30 Mar ? 08:35:19 10° NE 08:40:42 18° E 08:46:02 10° SE visible
30 Mar ? 10:26:06 10° NNE 10:34:31 87° ESE 10:42:50 10° SSW visible
